Willimantic, CT

3:30 AM EDT on March 26, 2017 (GMT -0400)
Windham

Weather History for KIJD - March, 2013

Change the Weather History Date:

Saturday, March 23, 2013

  Actual Average Record
Temperature  
Mean Temperature 38 °F -  
Max Temperature 43 °F 46 °F 75 °F (2012)
Min Temperature 32 °F 26 °F 11 °F (1988)
Degree Days  
Heating Degree Days 28    
Moisture  
Dew Point 19 °F    
Average Humidity 52    
Maximum Humidity 73    
Minimum Humidity 32    
Precipitation  
Precipitation 0.00 in - - ()
Sea Level Pressure  
Sea Level Pressure 29.79 in    
Wind  
Wind Speed 10 mph (WNW)    
Max Wind Speed 21 mph    
Max Gust Speed 34 mph    
Visibility 9 miles    
Events Snow    
Averages and records for this station are not official NWS values.
T = Trace of Precipitation, MM = Missing Value Source: NWS Daily Summary

Daily Weather History Graph

Daily Weather History Graph

Search for Another Location

Airport or City:

Trip Planner

Search our weather history database for the weather conditions in past years. The results will help you decide how hot, cold, wet, or windy it might be!

Date:

Astronomy

Mar. 23, 2013 Rise Set
Actual Time 6:46 AM EDT 7:04 PM EDT
Civil Twilight 6:18 AM EDT 7:32 PM EDT
Nautical Twilight 5:46 AM EDT 8:05 PM EDT
Astronomical Twilight 5:12 AM EDT 8:38 PM EDT
Moon 3:25 PM EDT (3/23) 4:24 AM EDT (3/23)
Length of Visible Light 13h 13m
Length of Day
12h 17m
Waxing Gibbous, 85% of the Moon is Illuminated
Mar 23
Waxing Gibbous
Mar 27
Full
Apr 3
Last Quarter
Apr 10
New
Apr 18
First Quarter

Hourly Weather History & Observations

Time (EDT) Temp. Windchill Dew Point Humidity Pressure Visibility Wind Dir Wind Speed Gust Speed Precip Events Conditions
12:52 AM 33.1 °F 23.9 °F 19.9 °F 59% 29.81 in 10.0 mi WNW 12.7 mph - N/A   Mostly Cloudy
1:52 AM 32.0 °F 26.4 °F 21.0 °F 64% 29.81 in 10.0 mi West 5.8 mph - N/A   Partly Cloudy
2:52 AM 32.0 °F 28.7 °F 21.9 °F 66% 29.80 in 10.0 mi West 3.5 mph - N/A   Scattered Clouds
3:52 AM 33.1 °F 26.9 °F 23.0 °F 66% 29.78 in 10.0 mi Variable 6.9 mph - N/A   Overcast
4:52 AM 32.0 °F 26.4 °F 21.9 °F 66% 29.77 in 10.0 mi West 5.8 mph - N/A   Mostly Cloudy
5:52 AM 32.0 °F 27.5 °F 21.9 °F 66% 29.77 in 10.0 mi WNW 4.6 mph - N/A   Scattered Clouds
6:52 AM 33.1 °F 26.1 °F 21.0 °F 61% 29.79 in 10.0 mi West 8.1 mph - N/A   Overcast
7:21 AM 32.0 °F 24.8 °F 21.2 °F 64% 29.79 in 1.8 mi West 8.1 mph - 0.00 in Snow Light Snow
7:27 AM 32.0 °F 25.6 °F 21.2 °F 64% 29.79 in 3.0 mi West 6.9 mph - 0.00 in Snow Light Snow
7:52 AM 32.0 °F 23.6 °F 24.1 °F 73% 29.79 in 10.0 mi West 10.4 mph - 0.00 in   Overcast
8:52 AM 34.0 °F 28.0 °F 23.0 °F 64% 29.78 in 10.0 mi Variable 6.9 mph - N/A   Overcast
9:52 AM 36.0 °F 29.6 °F 21.9 °F 57% 29.77 in 10.0 mi West 8.1 mph 16.1 mph N/A   Mostly Cloudy
10:52 AM 37.0 °F 27.7 °F 21.0 °F 52% 29.76 in 10.0 mi NW 16.1 mph 25.3 mph N/A   Overcast
11:52 AM 37.9 °F 28.2 °F 19.0 °F 47% 29.77 in 10.0 mi NW 18.4 mph 28.8 mph N/A   Mostly Cloudy
12:52 PM 39.9 °F 31.4 °F 18.0 °F 41% 29.76 in 10.0 mi NW 16.1 mph 24.2 mph N/A   Scattered Clouds
2:52 PM 43.0 °F 35.4 °F 15.1 °F 32% 29.74 in 10.0 mi WNW 16.1 mph 28.8 mph N/A   Scattered Clouds
3:52 PM 42.1 °F 33.1 °F 14.0 °F 32% 29.73 in 10.0 mi WNW 20.7 mph 34.5 mph N/A   Partly Cloudy
4:52 PM 42.1 °F 33.6 °F 16.0 °F 35% 29.73 in 10.0 mi NW 18.4 mph 27.6 mph N/A   Clear
5:52 PM 41.0 °F 32.8 °F 16.0 °F 36% 29.75 in 10.0 mi NW 16.1 mph 32.2 mph N/A   Clear
6:52 PM 39.0 °F 29.9 °F 16.0 °F 39% 29.78 in 10.0 mi NW 17.3 mph 24.2 mph N/A   Partly Cloudy
7:52 PM 37.9 °F 30.5 °F 15.1 °F 39% 29.81 in 10.0 mi NW 11.5 mph 26.5 mph N/A   Clear
8:52 PM 37.0 °F 28.5 °F 15.1 °F 41% 29.83 in 10.0 mi NW 13.8 mph 25.3 mph N/A   Clear
9:52 PM 36.0 °F 28.0 °F 18.0 °F 48% 29.85 in 10.0 mi NW 11.5 mph 18.4 mph N/A   Partly Cloudy
10:52 PM 35.1 °F 28.6 °F 17.1 °F 48% 29.86 in 10.0 mi WNW 8.1 mph - N/A   Clear
11:52 PM 35.1 °F 27.9 °F 18.0 °F 50% 29.85 in 10.0 mi West 9.2 mph - N/A   Clear